Flag for India Weather past 2 weeks in Kolkata, West Bengal, India

Now
82 °F

Rain. More clouds than sun.


Feels Like: 92 °F
Forecast: 80 / 89 °F
Wind: 6 mph from Northeast

Location: Calcutta / Dum Dum

Current Time: Sep 20, 2014 at 12:06:54 PM

Latest Report: Sep 20, 2014 at 11:20 AM


Visibility: 1 mi

Pressure: 29.62 "Hg

Humidity: 89%

Dew point: 79 °F

Location of KolkataLocation

Historic Weather in Kolkata — Graph

°F

Kolkata temperature yesterday

Maximum temperature yesterday: 93 °F (at 1:20 PM)
Minimum temperature yesterday: 82 °F (at 1:50 AM)
Average temperature yesterday: 86 °F

Past Weeks' High & Low Weather Summary

 TemperatureHumidityPressure
High95 °F (Sep 15, 12:20 PM)94% (Sep 5, 6:20 PM)29.77 "Hg (Sep 5, 6:20 PM)
Low79 °F (Sep 5, 6:20 PM)53% (Sep 17, 2:20 PM)29.45 "Hg (Sep 5, 2:50 PM)
Average86 °F81%29.62 "Hg
* Reported Sep 5 10:50 AM — Sep 20 10:50 AM, Kolkata, Weather by CustomWeather, © 2014

Note: Actual official high and low records may vary slightly from our data, if they occured in-between our weather recording intervals... More about our weather records

Advertising

Kolkata weather history for previous 24 hours

 ConditionsComfort  
Time TempWeatherWind HumidityBarometerVisibility
10:50 AM
Sep 20
82 °FThunderstorms. More clouds than sun.7 mph89%29.65 "Hg1 mi
10:20 AM82 °FThunderstorms. More clouds than sun.7 mph89%29.65 "Hg1 mi
9:50 AM82 °FThunderstorms. Broken clouds.9 mph89%29.65 "Hg2 mi
9:20 AM82 °FThunderstorms. Broken clouds.8 mph89%29.65 "Hg2 mi
8:50 AM81 °FThunderstorms. Broken clouds.6 mph94%29.65 "Hg2 mi
8:20 AM81 °FThunderstorms. Broken clouds.7 mph89%29.65 "Hg2 mi
7:50 AM81 °FThunderstorms. Broken clouds.5 mph89%29.62 "Hg2 mi
6:50 AM81 °FLight rain. Broken clouds.9 mph94%29.59 "Hg2 mi
6:20 AM81 °FLight rain. Broken clouds.8 mph94%29.59 "Hg2 mi
5:50 AM81 °FLight rain. Partly cloudy.6 mph94%29.59 "Hg2 mi
4:50 AM81 °FLight rain. Partly cloudy.7 mph94%29.59 "Hg2 mi
4:20 AM81 °FPartly cloudy.6 mph94%29.56 "Hg2 mi
3:50 AM81 °FPartly cloudy.6 mph94%29.59 "Hg2 mi
3:20 AM81 °FPassing clouds.6 mph94%29.56 "Hg2 mi
2:50 AM81 °FPassing clouds.6 mph94%29.56 "Hg2 mi
2:20 AM81 °FPassing clouds.6 mph94%29.59 "Hg2 mi
1:50 AM81 °FPassing clouds.6 mph94%29.59 "Hg2 mi
1:20 AM82 °FPassing clouds.6 mph89%29.59 "Hg2 mi
12:50 AM82 °FPassing clouds.6 mph89%29.62 "Hg2 mi
12:20 AM82 °FPassing clouds.6 mph89%29.65 "Hg2 mi
11:50 PM
Sep 19
82 °FPassing clouds.6 mph89%29.65 "Hg2 mi
11:20 PM82 °FPassing clouds.6 mph89%29.65 "Hg2 mi
10:50 PM82 °FPassing clouds.5 mph89%29.65 "Hg2 mi
10:20 PM84 °FPassing clouds.5 mph84%29.65 "Hg2 mi
9:50 PM84 °FPassing clouds.5 mph84%29.68 "Hg2 mi
9:20 PM84 °FPassing clouds.3 mph84%29.68 "Hg2 mi
8:50 PM84 °FPassing clouds.5 mph84%29.68 "Hg2 mi
8:20 PM84 °FPassing clouds.7 mph84%29.68 "Hg2 mi
7:50 PM84 °FPassing clouds.6 mph84%29.65 "Hg2 mi
7:20 PM84 °FPassing clouds.5 mph84%29.65 "Hg2 mi
6:20 PM84 °FPartly cloudy.5 mph84%29.62 "Hg2 mi
5:50 PM84 °FBroken clouds.6 mph84%29.62 "Hg2 mi
5:20 PM84 °FBroken clouds.6 mph84%29.59 "Hg2 mi
4:50 PM84 °FBroken clouds.8 mph84%29.59 "Hg2 mi
4:20 PM86 °FBroken clouds.8 mph79%29.59 "Hg2 mi
3:50 PM86 °FBroken clouds.8 mph79%29.59 "Hg2 mi
3:20 PM91 °FScattered clouds.12 mph67%29.59 "Hg2 mi
2:50 PM91 °FScattered clouds.12 mph67%29.59 "Hg2 mi
2:20 PM93 °FScattered clouds.12 mph63%29.59 "Hg2 mi
1:50 PM93 °FScattered clouds.14 mph63%29.62 "Hg2 mi
1:20 PM93 °FScattered clouds.14 mph63%29.62 "Hg2 mi
12:50 PM91 °FScattered clouds.8 mph71%29.62 "Hg2 mi
12:20 PM91 °FScattered clouds.14 mph71%29.65 "Hg2 mi
Weather by CustomWeather, © 2014

See weather overviewHow to use our weather pages